Weather History for Clayton Lake, ME

Change the Weather History Date:

Saturday, November 10, 2012

  Actual Average Record
Temperature  
Mean Temperature 28 °F -  
Max Temperature 36 °F 35 °F 60 °F (2011)
Min Temperature 21 °F 21 °F 7 °F (2004)
Degree Days  
Heating Degree Days 36    
Moisture  
Dew Point 16 °F    
Average Humidity 59    
Maximum Humidity 83    
Minimum Humidity 35    
Precipitation  
Precipitation 0.01 in - - ()
Sea Level Pressure  
Sea Level Pressure 30.24 in    
Wind  
Wind Speed 5 mph (West)    
Max Wind Speed 8 mph    
Max Gust Speed 21 mph    
Averages and records for this station are not official NWS values.
T = Trace of Precipitation, MM = Missing Value Source: NWS Daily Summary

Daily Weather History Graph

Daily Weather History Graph

Search for Another Location

Airport:

Trip Planner

Search our weather history database for the weather conditions in past years. The results will help you decide how hot, cold, wet, or windy it might be!

Date:

Astronomy

Nov. 10, 2012 Rise Set
Actual Time 6:33 AM EST 4:09 PM EST
Civil Twilight 6:01 AM EST 4:42 PM EST
Nautical Twilight 5:24 AM EST 5:18 PM EST
Astronomical Twilight 4:49 AM EST 5:54 PM EST
Moon 2:22 AM EST (11/10) 2:05 PM EST (11/10)
Length of Visible Light 10h 40m
Length of Day
9h 36m
Waning Crescent, 14% of the Moon is Illuminated
Nov 10
Waning Crescent
Nov 13
New
Nov 20
First Quarter
Nov 28
Full
Dec 6
Last Quarter

Hourly Weather History & Observations

Time (EST) Temp. Windchill Dew Point Humidity Pressure Visibility Wind Dir Wind Speed Gust Speed Precip Events Conditions
12:25 AM 35.1 °F 30.1 °F 25.7 °F 69% 29.92 in - Variable 5.8 mph 12.7 mph N/A   Unknown
1:25 AM 34.9 °F 29.9 °F 25.3 °F 68% 29.95 in - Variable 5.8 mph 15.0 mph N/A   Unknown
2:25 AM 34.0 °F 28.8 °F 24.3 °F 68% 29.97 in - Variable 5.8 mph 19.6 mph N/A   Unknown
3:25 AM 32.9 °F 26.7 °F 24.3 °F 71% 29.99 in - Variable 6.9 mph 18.4 mph N/A   Unknown
4:25 AM 31.1 °F 26.4 °F 19.6 °F 62% 30.04 in - Variable 4.6 mph 20.7 mph N/A   Unknown
5:25 AM 29.1 °F 23.0 °F 17.2 °F 61% 30.07 in - Variable 5.8 mph 12.7 mph N/A   Unknown
6:25 AM 28.2 °F 23.1 °F 17.1 °F 63% 30.12 in - Variable 4.6 mph - N/A   Unknown
7:25 AM 27.1 °F 20.7 °F 14.2 °F 58% 30.19 in - Variable 5.8 mph - N/A   Unknown
8:25 AM 27.3 °F 19.1 °F 13.3 °F 56% 30.22 in - West 8.1 mph 18.4 mph N/A   Unknown
9:25 AM 28.9 °F 22.8 °F 13.8 °F 53% 30.25 in - Variable 5.8 mph 15.0 mph N/A   Unknown
10:25 AM 30.0 °F 23.2 °F 13.1 °F 49% 30.26 in - Variable 6.9 mph 13.8 mph N/A   Unknown
11:25 AM 31.6 °F 25.1 °F 12.4 °F 45% 30.27 in - Variable 6.9 mph 15.0 mph N/A   Unknown
12:26 PM 33.6 °F 27.5 °F 10.4 °F 38% 30.27 in - West 6.9 mph 15.0 mph N/A   Unknown
1:25 PM 35.1 °F 30.1 °F 9.9 °F 35% 30.28 in - Variable 5.8 mph 12.7 mph N/A   Unknown
2:25 PM 35.6 °F - 10.6 °F 36% 30.30 in - Variable 2.3 mph 13.8 mph N/A   Unknown
3:25 PM 33.3 °F 30.2 °F 11.7 °F 41% 30.32 in - Variable 3.5 mph 11.5 mph N/A   Unknown
4:29 PM 29.3 °F - 13.5 °F 52% 30.34 in - Calm Calm - N/A   Unknown
5:25 PM 27.0 °F - 14.7 °F 60% 30.36 in - Calm Calm - N/A   Unknown
6:26 PM 26.2 °F - 15.1 °F 63% 30.39 in - Calm Calm - 0.00 in   Unknown
7:25 PM 25.9 °F - 14.7 °F 63% 30.41 in - Calm Calm - 0.01 in   Unknown
8:25 PM 23.7 °F - 16.2 °F 73% 30.43 in - Calm Calm - N/A   Unknown
9:28 PM 24.3 °F 19.9 °F 16.0 °F 71% 30.45 in - Variable 3.5 mph - N/A   Unknown
10:25 PM 22.8 °F - 16.7 °F 77% 30.46 in - Calm Calm - N/A   Unknown
11:25 PM 21.7 °F - 17.4 °F 83% 30.46 in - Calm Calm - N/A   Unknown